TimeEDT,TemperatureF,Dew PointF,Humidity,Sea Level PressureIn,VisibilityMPH,Wind Direction,Wind SpeedMPH,Gust SpeedMPH,PrecipitationIn,Events,Conditions,WindDirDegrees,DateUTC
12:15 AM,38.8,37.8,96,29.39,0.5,East,19.6,27.6,N/A,Fog,Fog,100,2013-04-19 04:15:00
12:36 AM,38.7,37.6,96,29.38,0.5,East,18.4,28.8,N/A,Fog,Fog,100,2013-04-19 04:36:00
12:55 AM,38.3,37.4,97,29.36,0.5,East,18.4,32.2,N/A,Fog,Fog,100,2013-04-19 04:55:00
1:15 AM,38.7,37.6,96,29.35,0.5,East,18.4,28.8,N/A,,Unknown,100,2013-04-19 05:15:00
1:36 AM,38.7,37.6,96,29.32,0.8,East,19.6,31.1,0.03,,Unknown,100,2013-04-19 05:36:00
1:56 AM,38.7,37.6,96,29.33,1.8,East,15.0,25.3,0.08,,Unknown,100,2013-04-19 05:56:00
2:15 AM,38.5,37.4,96,29.31,2.0,East,15.0,23.0,0.02,,Unknown,100,2013-04-19 06:15:00
2:36 AM,38.5,37.4,96,29.30,1.0,East,15.0,26.5,0.02,,Overcast,100,2013-04-19 06:36:00
2:56 AM,38.7,37.6,96,29.28,0.5,ESE,13.8,20.7,0.02,Fog,Fog,110,2013-04-19 06:56:00
3:15 AM,39.2,37.9,95,29.27,0.8,ESE,10.4,16.1,N/A,,Unknown,110,2013-04-19 07:15:00
3:36 AM,40.1,39.2,97,29.31,2.0,West,5.8,-,0.04,Rain,Light Rain,280,2013-04-19 07:36:00
3:56 AM,40.1,39.0,96,29.30,1.8,West,5.8,-,0.05,Rain,Light Rain,270,2013-04-19 07:56:00
4:15 AM,42.6,41.5,96,29.30,3.0,West,5.8,-,0.01,Rain,Rain,260,2013-04-19 08:15:00
4:35 AM,42.4,41.4,96,29.28,2.5,WSW,9.2,16.1,0.03,Rain,Light Rain,250,2013-04-19 08:35:00
4:56 AM,41.9,41.0,97,29.26,2.5,West,11.5,17.3,0.03,Rain,Rain,260,2013-04-19 08:56:00
5:15 AM,42.1,41.0,96,29.25,4.0,WSW,12.7,17.3,N/A,,Light Drizzle,250,2013-04-19 09:15:00
5:36 AM,41.9,41.0,97,29.25,10.0,West,13.8,21.9,N/A,,Overcast,260,2013-04-19 09:36:00
5:55 AM,41.4,40.3,96,29.26,10.0,WSW,11.5,24.2,N/A,,Overcast,250,2013-04-19 09:55:00
6:15 AM,40.5,39.4,96,29.25,10.0,WSW,10.4,18.4,N/A,Rain,Light Rain,250,2013-04-19 10:15:00
6:55 AM,39.2,37.8,95,29.25,7.0,WSW,9.2,17.3,N/A,,Light Drizzle,250,2013-04-19 10:55:00
7:15 AM,39.4,38.1,95,29.25,7.0,SW,12.7,18.4,0.01,,Unknown,230,2013-04-19 11:15:00
7:36 AM,40.1,37.6,91,29.24,10.0,SW,11.5,-,0.01,,Overcast,230,2013-04-19 11:36:00
7:55 AM,39.6,36.9,90,29.24,10.0,SW,10.4,17.3,0.01,,Overcast,230,2013-04-19 11:55:00
8:15 AM,39.4,36.5,89,29.23,10.0,SW,9.2,16.1,N/A,,Overcast,230,2013-04-19 12:15:00
8:36 AM,38.7,35.8,89,29.23,10.0,SW,15.0,24.2,N/A,,Overcast,230,2013-04-19 12:36:00
8:55 AM,38.7,34.0,83,29.22,10.0,SW,15.0,23.0,N/A,,Overcast,230,2013-04-19 12:55:00
9:15 AM,38.3,33.8,84,29.21,10.0,SW,13.8,26.5,N/A,,Overcast,230,2013-04-19 13:15:00
9:36 AM,38.5,33.1,81,29.21,10.0,SW,10.4,24.2,N/A,,Overcast,220,2013-04-19 13:36:00
9:55 AM,38.3,32.2,79,29.21,10.0,SW,15.0,29.9,N/A,,Overcast,220,2013-04-19 13:55:00
10:15 AM,38.3,31.3,76,29.21,10.0,SSW,12.7,24.2,N/A,,Overcast,210,2013-04-19 14:15:00
10:55 AM,38.7,30.2,72,29.21,10.0,SSW,13.8,25.3,N/A,,Overcast,210,2013-04-19 14:55:00
11:15 AM,38.8,29.8,70,29.21,10.0,SW,13.8,27.6,N/A,,Overcast,220,2013-04-19 15:15:00
11:36 AM,38.8,29.5,69,29.21,10.0,SW,12.7,23.0,N/A,,Overcast,220,2013-04-19 15:36:00
11:55 AM,38.8,29.1,68,29.22,10.0,SW,16.1,25.3,N/A,,Overcast,220,2013-04-19 15:55:00
12:15 PM,38.7,29.1,69,29.21,10.0,SW,15.0,27.6,N/A,,Overcast,220,2013-04-19 16:15:00
12:35 PM,38.7,28.4,67,29.21,10.0,SSW,15.0,31.1,N/A,,Overcast,210,2013-04-19 16:35:00
12:55 PM,38.5,29.1,69,29.20,10.0,SSW,12.7,23.0,N/A,,Overcast,210,2013-04-19 16:55:00
1:16 PM,38.7,28.8,68,29.20,10.0,SW,15.0,23.0,N/A,,Overcast,220,2013-04-19 17:16:00
1:35 PM,39.2,28.6,66,29.19,10.0,SSW,18.4,29.9,N/A,,Overcast,210,2013-04-19 17:35:00
1:55 PM,38.8,28.6,67,29.19,10.0,SSW,17.3,32.2,N/A,,Overcast,210,2013-04-19 17:55:00
2:16 PM,38.5,30.0,72,29.19,5.0,SW,16.1,34.5,N/A,,Unknown,220,2013-04-19 18:16:00
2:35 PM,38.8,30.0,71,29.18,10.0,SSW,17.3,29.9,N/A,,Overcast,210,2013-04-19 18:35:00
2:55 PM,38.3,30.7,74,29.19,5.0,SW,17.3,31.1,N/A,,Haze,220,2013-04-19 18:55:00
3:16 PM,38.5,30.6,73,29.19,10.0,SSW,23.0,34.5,N/A,,Overcast,210,2013-04-19 19:16:00
3:35 PM,38.3,30.0,72,29.19,10.0,SW,21.9,33.4,N/A,,Overcast,220,2013-04-19 19:35:00
3:55 PM,36.9,32.0,83,29.21,7.0,SW,20.7,33.4,N/A,Snow,Light Snow,220,2013-04-19 19:55:00
4:16 PM,36.3,31.1,81,29.22,10.0,SW,25.3,35.7,N/A,Snow,Light Snow,230,2013-04-19 20:16:00
4:35 PM,35.2,32.0,88,29.23,4.0,SW,20.7,35.7,N/A,Snow,Light Snow,230,2013-04-19 20:35:00
4:55 PM,36.5,30.9,80,29.24,10.0,SW,25.3,42.6,N/A,,Overcast,230,2013-04-19 20:55:00
5:16 PM,36.5,27.9,71,29.26,10.0,SW,29.9,44.9,N/A,,Overcast,230,2013-04-19 21:16:00
5:35 PM,36.5,26.4,67,29.27,10.0,SW,26.5,42.6,N/A,,Overcast,230,2013-04-19 21:35:00
5:55 PM,36.7,26.8,67,29.29,10.0,WSW,25.3,41.4,N/A,,Overcast,240,2013-04-19 21:55:00
6:15 PM,36.1,26.4,68,29.30,10.0,WSW,23.0,39.1,N/A,,Overcast,240,2013-04-19 22:15:00
6:35 PM,35.6,26.6,70,29.31,10.0,WSW,25.3,36.8,N/A,,Overcast,240,2013-04-19 22:35:00
6:56 PM,35.1,25.9,69,29.33,10.0,WSW,29.9,46.0,N/A,,Overcast,240,2013-04-19 22:56:00
7:15 PM,33.3,23.7,68,29.35,10.0,WSW,28.8,48.3,N/A,,Overcast,250,2013-04-19 23:15:00
7:35 PM,32.2,23.7,71,29.36,10.0,WSW,20.7,51.8,N/A,,Overcast,250,2013-04-19 23:35:00
7:56 PM,31.8,24.1,73,29.37,7.0,WSW,25.3,43.7,N/A,Snow,Light Snow,250,2013-04-19 23:56:00
8:15 PM,30.7,25.3,80,29.39,1.5,WSW,26.5,44.9,N/A,Snow,Light Snow,250,2013-04-20 00:15:00
8:35 PM,30.0,26.4,86,29.41,0.5,WSW,27.6,46.0,N/A,Snow,Snow,250,2013-04-20 00:35:00
8:56 PM,29.3,26.6,90,29.43,0.8,WSW,26.5,42.6,N/A,Snow,Snow,250,2013-04-20 00:56:00
9:15 PM,29.3,25.7,86,29.45,1.0,West,28.8,47.2,N/A,Snow,Light Snow,260,2013-04-20 01:15:00
9:36 PM,29.8,24.4,80,29.47,2.0,West,32.2,43.7,N/A,Snow,Light Snow,270,2013-04-20 01:36:00
9:55 PM,29.3,24.4,82,29.49,2.0,West,32.2,44.9,N/A,Snow,Light Snow,270,2013-04-20 01:55:00
10:15 PM,29.3,22.8,77,29.52,4.0,West,29.9,41.4,N/A,Snow,Light Snow,270,2013-04-20 02:15:00
10:36 PM,29.3,22.3,75,29.53,7.0,West,26.5,32.2,N/A,Snow,Light Snow,270,2013-04-20 02:36:00
10:55 PM,28.9,22.6,77,29.54,7.0,West,23.0,35.7,N/A,Snow,Light Snow,270,2013-04-20 02:55:00
11:15 PM,28.2,23.0,81,29.55,2.5,West,21.9,29.9,N/A,Snow,Light Snow,270,2013-04-20 03:15:00
11:36 PM,28.2,21.9,77,29.56,7.0,West,21.9,29.9,N/A,Snow,Light Snow,270,2013-04-20 03:36:00
11:55 PM,28.0,21.2,76,29.57,10.0,West,21.9,29.9,N/A,Snow,Light Snow,280,2013-04-20 03:55:00